TimeCDT,TemperatureF,Dew PointF,Humidity,Sea Level PressureIn,VisibilityMPH,Wind Direction,Wind SpeedMPH,Gust SpeedMPH,PrecipitationIn,Events,Conditions,WindDirDegrees,DateUTC
12:14 AM,47.8,27.5,45,30.01,10.0,WNW,5.8,-,N/A,,Clear,300,2012-10-02 05:14:00
12:34 AM,47.7,27.1,45,30.01,10.0,WNW,5.8,-,N/A,,Clear,300,2012-10-02 05:34:00
12:54 AM,46.0,27.5,48,30.01,10.0,WNW,4.6,-,N/A,,Clear,290,2012-10-02 05:54:00
1:14 AM,48.0,27.0,44,30.00,10.0,West,4.6,-,N/A,,Clear,280,2012-10-02 06:14:00
1:34 AM,41.9,27.1,56,30.00,10.0,Calm,Calm,-,N/A,,Clear,0,2012-10-02 06:34:00
1:54 AM,44.8,27.3,50,30.00,10.0,WNW,4.6,-,N/A,,Clear,290,2012-10-02 06:54:00
2:14 AM,45.0,27.3,50,30.00,10.0,West,3.5,-,N/A,,Clear,280,2012-10-02 07:14:00
2:33 AM,44.1,27.3,52,30.00,10.0,West,4.6,-,N/A,,Clear,260,2012-10-02 07:33:00
3:14 AM,43.0,27.3,54,29.99,10.0,Calm,Calm,-,N/A,,Clear,0,2012-10-02 08:14:00
3:34 AM,44.1,27.5,52,29.99,10.0,West,3.5,-,N/A,,Clear,270,2012-10-02 08:34:00
3:54 AM,42.1,27.5,56,29.98,10.0,Calm,Calm,-,N/A,,Clear,0,2012-10-02 08:54:00
4:14 AM,42.1,27.7,57,29.98,10.0,WSW,5.8,-,N/A,,Clear,240,2012-10-02 09:14:00
4:34 AM,41.2,28.0,60,29.98,10.0,WSW,5.8,-,N/A,,Clear,240,2012-10-02 09:34:00
4:54 AM,40.5,28.4,62,29.98,10.0,WSW,5.8,-,N/A,,Clear,240,2012-10-02 09:54:00
5:34 AM,40.3,28.8,63,29.98,10.0,SW,5.8,-,N/A,,Clear,230,2012-10-02 10:34:00
6:14 AM,39.2,28.4,65,29.98,10.0,SW,6.9,-,N/A,,Clear,230,2012-10-02 11:14:00
6:35 AM,39.7,28.4,64,29.98,10.0,SW,5.8,-,N/A,,Clear,230,2012-10-02 11:35:00
6:54 AM,39.2,28.4,65,29.98,10.0,SW,4.6,-,N/A,,Clear,230,2012-10-02 11:54:00
7:14 AM,39.7,28.4,64,29.98,10.0,SW,4.6,-,N/A,,Clear,230,2012-10-02 12:14:00
7:34 AM,41.0,28.9,62,29.98,10.0,SW,4.6,-,N/A,,Clear,230,2012-10-02 12:34:00
7:54 AM,41.0,29.3,63,29.99,10.0,SW,4.6,-,N/A,,Clear,230,2012-10-02 12:54:00
8:14 AM,44.1,30.4,59,29.98,10.0,SW,5.8,-,N/A,,Clear,220,2012-10-02 13:14:00
8:34 AM,48.0,32.2,54,29.97,10.0,SSW,4.6,-,N/A,,Clear,210,2012-10-02 13:34:00
8:54 AM,51.4,32.2,48,29.98,10.0,SW,5.8,-,N/A,,Clear,220,2012-10-02 13:54:00
9:14 AM,54.7,32.2,42,29.97,10.0,SSW,8.1,-,N/A,,Clear,210,2012-10-02 14:14:00
9:34 AM,56.7,33.1,41,29.97,10.0,SSW,5.8,-,N/A,,Clear,200,2012-10-02 14:34:00
9:54 AM,59.2,32.4,36,29.97,10.0,SSW,6.9,-,N/A,,Clear,200,2012-10-02 14:54:00
10:14 AM,60.3,32.4,35,29.96,10.0,South,6.9,-,N/A,,Clear,180,2012-10-02 15:14:00
10:34 AM,62.2,32.0,32,29.95,10.0,South,9.2,-,N/A,,Clear,190,2012-10-02 15:34:00
10:53 AM,62.2,32.4,33,29.94,10.0,SSW,9.2,-,N/A,,Clear,200,2012-10-02 15:53:00
11:14 AM,63.3,32.0,31,29.94,10.0,SSW,10.4,-,N/A,,Clear,200,2012-10-02 16:14:00
11:34 AM,64.2,32.0,30,29.94,10.0,SSW,9.2,16.1,N/A,,Clear,200,2012-10-02 16:34:00
11:54 AM,65.1,31.6,29,29.93,10.0,SSW,10.4,17.3,N/A,,Clear,210,2012-10-02 16:54:00
12:14 PM,66.2,31.1,27,29.92,10.0,SSW,10.4,-,N/A,,Clear,200,2012-10-02 17:14:00
12:34 PM,66.9,30.4,26,29.92,10.0,SW,11.5,17.3,N/A,,Clear,220,2012-10-02 17:34:00
12:54 PM,67.5,30.4,25,29.92,10.0,SSW,12.7,20.7,N/A,,Clear,210,2012-10-02 17:54:00
1:14 PM,67.8,29.5,24,29.90,10.0,SSW,13.8,19.6,N/A,,Clear,210,2012-10-02 18:14:00
1:34 PM,68.4,28.9,23,29.89,10.0,SW,13.8,18.4,N/A,,Clear,220,2012-10-02 18:34:00
1:54 PM,68.2,26.6,21,29.88,10.0,SSW,11.5,17.3,N/A,,Clear,210,2012-10-02 18:54:00
2:14 PM,68.9,26.6,20,29.87,10.0,SSW,11.5,18.4,N/A,,Clear,210,2012-10-02 19:14:00
2:34 PM,69.6,26.2,20,29.87,10.0,SW,11.5,18.4,N/A,,Clear,220,2012-10-02 19:34:00
2:54 PM,70.3,25.5,19,29.86,10.0,South,10.4,-,N/A,,Clear,190,2012-10-02 19:54:00
3:14 PM,70.3,23.4,17,29.85,10.0,SSW,9.2,17.3,N/A,,Clear,200,2012-10-02 20:14:00
3:34 PM,70.9,24.4,18,29.85,10.0,South,10.4,16.1,N/A,,Clear,190,2012-10-02 20:34:00
3:54 PM,70.5,23.0,17,29.84,10.0,South,12.7,16.1,N/A,,Clear,190,2012-10-02 20:54:00
4:14 PM,71.4,24.1,17,29.84,10.0,South,15.0,18.4,N/A,,Clear,190,2012-10-02 21:14:00
4:34 PM,70.9,24.6,18,29.82,10.0,South,9.2,17.3,N/A,,Clear,190,2012-10-02 21:34:00
4:54 PM,71.1,23.5,17,29.82,10.0,South,11.5,16.1,N/A,,Clear,190,2012-10-02 21:54:00
5:14 PM,70.9,22.5,16,29.82,10.0,South,10.4,-,N/A,,Clear,190,2012-10-02 22:14:00
5:34 PM,70.7,23.0,17,29.82,10.0,South,12.7,16.1,N/A,,Clear,190,2012-10-02 22:34:00
5:53 PM,69.8,22.1,17,29.82,10.0,South,6.9,10.4,N/A,,Clear,190,2012-10-02 22:53:00
6:14 PM,68.5,24.1,19,29.82,10.0,SSW,8.1,-,N/A,,Clear,200,2012-10-02 23:14:00
6:34 PM,67.5,23.7,19,29.83,10.0,South,6.9,-,N/A,,Clear,190,2012-10-02 23:34:00
7:14 PM,63.3,24.6,23,29.83,10.0,South,5.8,-,N/A,,Clear,180,2012-10-03 00:14:00
7:34 PM,61.2,25.5,26,29.83,10.0,South,4.6,-,N/A,,Clear,190,2012-10-03 00:34:00
8:14 PM,58.5,25.7,29,29.83,10.0,South,4.6,-,N/A,,Clear,190,2012-10-03 01:14:00
8:34 PM,57.6,26.2,30,29.84,10.0,SSW,6.9,-,N/A,,Clear,200,2012-10-03 01:34:00
8:54 PM,58.3,25.5,28,29.84,10.0,South,6.9,-,N/A,,Clear,190,2012-10-03 01:54:00
9:14 PM,57.4,25.0,29,29.84,10.0,South,6.9,-,N/A,,Clear,190,2012-10-03 02:14:00
9:34 PM,57.6,23.7,27,29.84,10.0,South,8.1,-,N/A,,Clear,180,2012-10-03 02:34:00
9:54 PM,57.0,23.5,27,29.84,10.0,South,8.1,-,N/A,,Clear,190,2012-10-03 02:54:00
10:13 PM,56.5,24.4,29,29.85,10.0,SSW,8.1,-,N/A,,Clear,200,2012-10-03 03:13:00
10:34 PM,55.6,25.3,31,29.85,10.0,South,5.8,-,N/A,,Clear,180,2012-10-03 03:34:00
10:54 PM,55.4,25.7,32,29.84,10.0,South,9.2,-,N/A,,Clear,180,2012-10-03 03:54:00
11:14 PM,55.4,26.2,33,29.85,10.0,SSW,9.2,-,N/A,,Clear,200,2012-10-03 04:14:00
11:34 PM,56.1,26.6,32,29.84,10.0,South,9.2,-,N/A,,Clear,190,2012-10-03 04:34:00
11:54 PM,55.8,26.6,33,29.84,10.0,SSW,12.7,17.3,N/A,,Clear,200,2012-10-03 04:54:00